Regional Weather Roundup
Issued by NWS Green Bay, WI

Home | Current Version | Previous Version | Text Only | Print | Product List | Glossary On
Versions: 1 2 3 4 5 6 7 8 9 10 11 12 13 14 15 16 17 18 19 20 21 22 23 24 25 26 27 28 29 30 31 32 33 34 35 36 37 38 39 40 41 42 43 44 45 46 47 48 49 50
000
ASUS43 KGRB 031759
RWRGRB

NORTH-CENTRAL AND NORTHEAST WISCONSIN REGIONAL WEATHER ROUNDUP
NATIONAL WEATHER SERVICE GREEN BAY WI
100 PM CDT SUN MAY 03 2015

WIZ005-009-010>012-018-019-031900-
NORTH CENTRAL WISCONSIN

CITY           SKY/WX    TMP DP  RH WIND       PRES   REMARKS
IRONWOOD       MOSUNNY   77  52  41 SW16      29.73S
MANITOWISH WTR NOT AVBL
ARBOR VITAE    NOT AVBL
EAGLE RIVER    NOT AVBL
LAND O LAKES   NOT AVBL
RHINELANDER    SUNNY     75  52  44 SW12G23   29.82F
PHILLIPS       CLOUDY    73  53  50 SW9G16    29.80S
ANTIGO         NOT AVBL
TOMAHAWK       NOT AVBL
MERRILL        NOT AVBL
$$

WIZ013-073-031900-
NORTHEAST WISCONSIN

CITY           SKY/WX    TMP DP  RH WIND       PRES   REMARKS
IRON MOUNTAIN  SUNNY     80  51  36 S17G23    29.78F
MARINETTE      MOSUNNY   75  52  43 SW14G21   29.82F
$$

WIZ017-030-035>037-045-031900-
CENTRAL WISCONSIN

CITY           SKY/WX    TMP DP  RH WIND       PRES   REMARKS
MEDFORD        NOT AVBL
WAUSAU         MOSUNNY   74  51  44 S9        29.81F
MOSINEE        SUNNY     73  52  46 S14       29.84F
MARSHFIELD     MOSUNNY   77  51  40 S12G21    29.82F
WISC RAPIDS    MOSUNNY   77  49  37 S14       29.83F
STEVENS POINT  NOT AVBL
WAUPACA        NOT AVBL
SHAWANO        NOT AVBL
CLINTONVILLE   MOSUNNY   79  48  34 SW17      29.84F
$$

WIZ038-039-048-051-031900-
FOX VALLEY

CITY           SKY/WX    TMP DP  RH WIND       PRES   REMARKS
NWS GREEN BAY  MOSUNNY   78  51  38 SW18G25   29.85F
APPLETON       PTSUNNY   73  48  40 SW21      29.86F
OSHKOSH        PTSUNNY   76  53  44 SW16G26   29.86F
FOND DU LAC    PTSUNNY   76  51  41 S20G37    29.87F
$$

WIZ022-050-052-031900-
EAST CENTRAL WISCONSIN

CITY           SKY/WX    TMP DP  RH WIND       PRES   REMARKS
STURGEON BAY   PTSUNNY   72  48  43 S16       29.88F
MANITOWOC      NOT AVBL
SHEBOYGAN      PTSUNNY   79  50  36 S22       29.88F
$$

LMZ563-521-522-541>543-031900-
LAKESHORE

STATION/POSITION TIME  TEMP    WIND        PRES    VSBY  WAVE
                       AIR SEA DIR/SP/G                  HT/PER
                 (UTC) (F)     (DEG/KT/KT) (MB)    (MI)  (FT/S)
SHEBOYGAN LKSHOR 1700   47     160/ 20/ 20 1013.1S
KEWAUNEE LKSHORE 1700   49     180/ 17/ 18 1011.3F
NORTHPORT PIER   1700   53     150/  8/ 14 1011.9R
SISTER BAY LKSHO 1700   70     180/ 12/ 15   N/A
CHAMBERS ISLAND  1700   72     180/  7/ 18 1010.8F
MENOMINEE LKSHOR 1700   69     170/ 12/ 16 1011.0F
$$


USA.gov is the U.S. government's official web portal to all federal, state and local government web resources and services.